| time (UTC) | temp C | wind direction | speed KPH | gust KPH | rain 1hr cm | rain 24hr cm | rain mn cm | humidity % | barometer mb |
| 20260507074030 | 11 | 0.0 | 0.0 | 0.00 | 0.00 | 0.00 | 84 | 1021.9 | |
| 20260507073531 | 11 | 0.0 | 1.6 | 0.00 | 0.00 | 0.00 | 84 | 1021.9 | |
| 20260507073023 | 11 | 0.0 | 1.6 | 0.00 | 0.00 | 0.00 | 83 | 1021.9 | |
| 20260507072547 | 11 | 0.0 | 0.0 | 0.00 | 0.00 | 0.00 | 84 | 1021.9 | |
| 20260507072023 | 11 | 0.0 | 1.6 | 0.00 | 0.00 | 0.00 | 84 | 1021.9 | |
| 20260507071524 | 11 | 0.0 | 3.2 | 0.00 | 0.00 | 0.00 | 84 | 1021.9 | |
| 20260507071025 | 11 | 0.0 | 0.0 | 0.00 | 0.00 | 0.00 | 83 | 1021.8 | |
| 20260507070529 | 11 | 58 | 0.0 | 3.2 | 0.00 | 0.00 | 0.00 | 83 | 1021.9 |
| 20260507070020 | 11 | 0.0 | 1.6 | 0.00 | 0.00 | 0.00 | 83 | 1021.9 | |
| 20260507065528 | 11 | 313 | 0.0 | 1.6 | 0.00 | 0.00 | 0.00 | 83 | 1021.9 |
| 20260507065026 | 11 | 0.0 | 1.6 | 0.00 | 0.00 | 0.00 | 83 | 1021.8 | |
| 20260507064518 | 11 | 237 | 0.0 | 1.6 | 0.00 | 0.00 | 0.00 | 82 | 1021.9 |
| 20260507064043 | 11 | 285 | 0.0 | 1.6 | 0.00 | 0.00 | 0.00 | 82 | 1021.8 |
| 20260507063519 | 11 | 0.0 | 0.0 | 0.00 | 0.00 | 0.00 | 82 | 1021.9 | |
| 20260507063026 | 12 | 0.0 | 0.0 | 0.00 | 0.00 | 0.00 | 82 | 1021.9 | |
| 20260507062520 | 12 | 0.0 | 1.6 | 0.00 | 0.00 | 0.00 | 82 | 1021.9 | |
| 20260507062023 | 12 | 332 | 0.0 | 1.6 | 0.00 | 0.00 | 0.00 | 82 | 1021.9 |
| 20260507061520 | 12 | 204 | 0.0 | 1.6 | 0.00 | 0.00 | 0.00 | 81 | 1022.0 |
| 20260507061027 | 12 | 220 | 0.0 | 1.6 | 0.00 | 0.00 | 0.00 | 82 | 1021.9 |
| 20260507060526 | 12 | 0.0 | 1.6 | 0.00 | 0.00 | 0.00 | 82 | 1022.0 | |
| 20260507060025 | 12 | 296 | 0.0 | 1.6 | 0.00 | 0.00 | 0.00 | 82 | 1021.9 |
| 20260507055529 | 12 | 0.0 | 1.6 | 0.00 | 0.00 | 0.00 | 81 | 1022.1 | |
| 20260507055025 | 12 | 212 | 0.0 | 3.2 | 0.00 | 0.00 | 0.00 | 81 | 1021.9 |
| 20260507054519 | 12 | 188 | 1.6 | 4.8 | 0.00 | 0.00 | 0.00 | 82 | 1022.0 |
| 20260507054025 | 12 | 232 | 1.6 | 4.8 | 0.00 | 0.00 | 0.00 | 81 | 1021.9 |
| 20260507053529 | 12 | 272 | 0.0 | 3.2 | 0.00 | 0.00 | 0.00 | 81 | 1022.0 |
| 20260507053024 | 12 | 19 | 0.0 | 1.6 | 0.00 | 0.00 | 0.00 | 81 | 1022.0 |
| 20260507052544 | 12 | 231 | 0.0 | 3.2 | 0.00 | 0.00 | 0.00 | 81 | 1022.0 |
| 20260507052023 | 12 | 211 | 0.0 | 1.6 | 0.00 | 0.00 | 0.00 | 82 | 1021.9 |
| 20260507051523 | 12 | 357 | 0.0 | 1.6 | 0.00 | 0.00 | 0.00 | 81 | 1021.9 |
| 20260507051028 | 12 | 286 | 0.0 | 3.2 | 0.00 | 0.00 | 0.00 | 82 | 1022.0 |
| 20260507050525 | 12 | 312 | 0.0 | 3.2 | 0.00 | 0.00 | 0.00 | 81 | 1022.0 |
| 20260507050019 | 12 | 76 | 0.0 | 1.6 | 0.00 | 0.00 | 0.00 | 81 | 1022.0 |
| 20260507045543 | 12 | 277 | 0.0 | 3.2 | 0.00 | 0.00 | 0.00 | 81 | 1022.0 |
| 20260507045025 | 12 | 133 | 0.0 | 3.2 | 0.00 | 0.00 | 0.00 | 81 | 1022.1 |
| 20260507044529 | 12 | 189 | 0.0 | 3.2 | 0.00 | 0.00 | 0.00 | 80 | 1022.1 |
| 20260507044040 | 12 | 8 | 0.0 | 1.6 | 0.00 | 0.00 | 0.00 | 80 | 1022.0 |
| 20260507043548 | 12 | 52 | 0.0 | 1.6 | 0.00 | 0.00 | 0.00 | 81 | 1022.1 |
| 20260507043025 | 12 | 48 | 0.0 | 1.6 | 0.00 | 0.00 | 0.00 | 81 | 1022.1 |
| 20260507042523 | 12 | 217 | 0.0 | 3.2 | 0.00 | 0.00 | 0.00 | 80 | 1022.1 |
| 20260507042026 | 12 | 230 | 1.6 | 3.2 | 0.00 | 0.00 | 0.00 | 80 | 1022.0 |
| 20260507041545 | 12 | 0.0 | 1.6 | 0.00 | 0.00 | 0.00 | 80 | 1022.0 | |
| 20260507041023 | 12 | 233 | 0.0 | 1.6 | 0.00 | 0.00 | 0.00 | 80 | 1022.0 |
| 20260507040520 | 12 | 301 | 0.0 | 1.6 | 0.00 | 0.00 | 0.00 | 79 | 1022.0 |
| 20260507040023 | 12 | 259 | 0.0 | 3.2 | 0.00 | 0.00 | 0.00 | 79 | 1021.9 |
| 20260507035519 | 13 | 266 | 0.0 | 3.2 | 0.00 | 0.00 | 0.00 | 79 | 1021.9 |
| 20260507035024 | 13 | 280 | 1.6 | 3.2 | 0.00 | 0.00 | 0.00 | 79 | 1021.8 |
| 20260507034523 | 13 | 165 | 0.0 | 3.2 | 0.00 | 0.00 | 0.00 | 79 | 1021.7 |
| 20260507034024 | 13 | 201 | 1.6 | 3.2 | 0.00 | 0.00 | 0.00 | 79 | 1021.6 |
| 20260507033529 | 13 | 53 | 1.6 | 6.4 | 0.00 | 0.00 | 0.00 | 78 | 1021.6 |
| 20260507033104 | 13 | 146 | 1.6 | 3.2 | 0.00 | 0.00 | 0.00 | 78 | 1021.5 |
| 20260507032523 | 13 | 256 | 1.6 | 4.8 | 0.00 | 0.00 | 0.00 | 78 | 1021.6 |
| 20260507032025 | 13 | 60 | 3.2 | 11.3 | 0.00 | 0.00 | 0.00 | 78 | 1021.4 |
| 20260507031523 | 13 | 338 | 1.6 | 3.2 | 0.00 | 0.00 | 0.00 | 78 | 1021.5 |
| 20260507031023 | 13 | 262 | 1.6 | 6.4 | 0.00 | 0.00 | 0.00 | 78 | 1021.5 |
| 20260507030524 | 13 | 8 | 1.6 | 6.4 | 0.00 | 0.00 | 0.00 | 78 | 1021.4 |
| 20260507030023 | 13 | 53 | 1.6 | 6.4 | 0.00 | 0.00 | 0.00 | 78 | 1021.3 |
| 20260507025520 | 13 | 235 | 0.0 | 4.8 | 0.00 | 0.00 | 0.00 | 78 | 1021.4 |
| 20260507025024 | 13 | 250 | 1.6 | 3.2 | 0.00 | 0.00 | 0.00 | 78 | 1021.2 |
| 20260507024547 | 14 | 350 | 1.6 | 4.8 | 0.00 | 0.00 | 0.00 | 78 | 1021.1 |
| 20260507024043 | 14 | 263 | 0.0 | 1.6 | 0.00 | 0.00 | 0.00 | 78 | 1021.1 |
| 20260507023523 | 14 | 211 | 0.0 | 3.2 | 0.00 | 0.00 | 0.00 | 78 | 1021.0 |
| 20260507023025 | 14 | 248 | 0.0 | 4.8 | 0.00 | 0.00 | 0.00 | 78 | 1021.0 |
| 20260507022523 | 14 | 219 | 1.6 | 6.4 | 0.00 | 0.00 | 0.00 | 78 | 1020.9 |
| 20260507022023 | 14 | 82 | 0.0 | 3.2 | 0.00 | 0.00 | 0.00 | 77 | 1021.0 |
| 20260507021523 | 15 | 268 | 1.6 | 6.4 | 0.00 | 0.00 | 0.00 | 77 | 1021.1 |
| 20260507021020 | 15 | 217 | 1.6 | 3.2 | 0.00 | 0.00 | 0.00 | 76 | 1020.9 |
| 20260507020528 | 15 | 315 | 1.6 | 3.2 | 0.00 | 0.00 | 0.00 | 76 | 1020.8 |
| 20260507020024 | 15 | 312 | 0.0 | 3.2 | 0.00 | 0.00 | 0.00 | 76 | 1021.0 |
| 20260507015524 | 15 | 165 | 0.0 | 3.2 | 0.00 | 0.00 | 0.00 | 76 | 1021.0 |
| 20260507015020 | -17 | 214 | 1.6 | 6.4 | 0.00 | 0.00 | 0.00 | 1021.0 | |
| 20260507014524 | 15 | 46 | 1.6 | 4.8 | 0.00 | 0.00 | 0.00 | 76 | 1021.0 |
| 20260507014019 | -17 | 66 | 3.2 | 9.7 | 0.00 | 0.00 | 0.00 | 1021.0 | |
| 20260507013523 | 16 | 352 | 1.6 | 3.2 | 0.00 | 0.00 | 0.00 | 74 | 1021.1 |
| 20260507013048 | 16 | 257 | 0.0 | 4.8 | 0.00 | 0.00 | 0.00 | 75 | 1020.9 |
| 20260507012523 | 16 | 277 | 0.0 | 3.2 | 0.00 | 0.00 | 0.00 | 74 | 1021.1 |
| 20260507012023 | 16 | 244 | 1.6 | 4.8 | 0.00 | 0.00 | 0.00 | 74 | 1021.1 |
| 20260507011523 | 16 | 37 | 3.2 | 9.7 | 0.00 | 0.00 | 0.00 | 75 | 1021.0 |
| 20260507011023 | 16 | 219 | 1.6 | 3.2 | 0.00 | 0.00 | 0.00 | 74 | 1021.1 |
| 20260507010519 | 16 | 104 | 0.0 | 3.2 | 0.00 | 0.00 | 0.00 | 75 | 1021.1 |
| 20260507010025 | 16 | 91 | 0.0 | 3.2 | 0.00 | 0.00 | 0.00 | 74 | 1021.1 |
| 20260507005540 | 16 | 1 | 1.6 | 4.8 | 0.00 | 0.00 | 0.00 | 73 | 1021.1 |
| 20260507005023 | 16 | 156 | 1.6 | 3.2 | 0.00 | 0.00 | 0.00 | 73 | 1021.1 |
| 20260507004526 | 16 | 92 | 1.6 | 6.4 | 0.00 | 0.00 | 0.00 | 73 | 1021.1 |
| 20260507004020 | 16 | 257 | 1.6 | 4.8 | 0.00 | 0.00 | 0.00 | 74 | 1021.0 |
| 20260507003523 | 16 | 268 | 1.6 | 3.2 | 0.00 | 0.00 | 0.00 | 73 | 1021.0 |
| 20260507003026 | 16 | 243 | 1.6 | 4.8 | 0.00 | 0.00 | 0.00 | 73 | 1021.0 |
| 20260507002525 | 17 | 244 | 1.6 | 8.0 | 0.00 | 0.00 | 0.00 | 73 | 1020.9 |
| 20260507002024 | 17 | 33 | 1.6 | 4.8 | 0.00 | 0.00 | 0.00 | 74 | 1020.9 |
| 20260507001523 | 17 | 239 | 1.6 | 4.8 | 0.00 | 0.00 | 0.00 | 73 | 1020.8 |
| 20260507001024 | 17 | 331 | 1.6 | 3.2 | 0.00 | 0.00 | 0.00 | 73 | 1020.8 |
| 20260507000523 | 17 | 198 | 1.6 | 4.8 | 0.00 | 0.00 | 0.00 | 73 | 1020.8 |
| 20260507000023 | 17 | 245 | 1.6 | 3.2 | 0.00 | 0.00 | 0.00 | 73 | 1020.8 |
| 20260506235518 | 17 | 8 | 1.6 | 4.8 | 0.00 | 0.00 | 0.00 | 73 | 1020.8 |
| 20260506235027 | 17 | 307 | 1.6 | 4.8 | 0.00 | 0.00 | 0.00 | 73 | 1020.9 |
| 20260506234523 | 17 | 344 | 3.2 | 4.8 | 0.00 | 0.00 | 0.00 | 73 | 1020.8 |
| 20260506234023 | 17 | 248 | 1.6 | 4.8 | 0.00 | 0.00 | 0.00 | 72 | 1020.8 |
| 20260506233524 | 17 | 1 | 3.2 | 6.4 | 0.00 | 0.00 | 0.00 | 72 | 1020.9 |
| 20260506233028 | 17 | 52 | 1.6 | 4.8 | 0.00 | 0.00 | 0.00 | 73 | 1020.9 |
| 20260506232523 | 17 | 277 | 1.6 | 4.8 | 0.00 | 0.00 | 0.00 | 72 | 1020.8 |
| 20260506232024 | 17 | 318 | 1.6 | 4.8 | 0.00 | 0.00 | 0.00 | 72 | 1020.8 |
| 20260506231525 | 17 | 183 | 1.6 | 6.4 | 0.00 | 0.00 | 0.00 | 72 | 1020.9 |
| 20260506231023 | 17 | 315 | 3.2 | 4.8 | 0.00 | 0.00 | 0.00 | 71 | 1020.8 |
| 20260506230550 | 17 | 266 | 3.2 | 6.4 | 0.00 | 0.00 | 0.00 | 71 | 1020.9 |
| 20260506230024 | 17 | 6 | 1.6 | 4.8 | 0.00 | 0.00 | 0.00 | 72 | 1020.9 |
| 20260506225523 | 17 | 129 | 1.6 | 4.8 | 0.00 | 0.00 | 0.00 | 73 | 1020.9 |
| 20260506225023 | 17 | 31 | 1.6 | 4.8 | 0.00 | 0.00 | 0.00 | 74 | 1021.0 |
| 20260506224526 | 17 | 209 | 3.2 | 4.8 | 0.00 | 0.00 | 0.00 | 74 | 1021.0 |
| 20260506224027 | 17 | 189 | 3.2 | 6.4 | 0.00 | 0.00 | 0.00 | 74 | 1021.0 |
| 20260506223523 | 17 | 166 | 3.2 | 6.4 | 0.00 | 0.00 | 0.00 | 74 | 1021.1 |
| 20260506223030 | 17 | 132 | 1.6 | 4.8 | 0.00 | 0.00 | 0.00 | 74 | 1021.1 |
| 20260506222524 | 17 | 343 | 1.6 | 4.8 | 0.00 | 0.00 | 0.00 | 74 | 1021.2 |
| 20260506222023 | 17 | 342 | 1.6 | 4.8 | 0.00 | 0.00 | 0.00 | 75 | 1021.2 |
| 20260506221522 | 17 | 168 | 3.2 | 4.8 | 0.00 | 0.00 | 0.00 | 75 | 1021.3 |
| 20260506221022 | 17 | 342 | 1.6 | 3.2 | 0.00 | 0.00 | 0.00 | 76 | 1021.4 |
| 20260506220530 | 17 | 303 | 0.0 | 4.8 | 0.00 | 0.00 | 0.00 | 77 | 1021.4 |
| 20260506220048 | 17 | 46 | 3.2 | 4.8 | 0.00 | 0.00 | 0.00 | 76 | 1021.4 |
| 20260506215523 | 17 | 46 | 0.0 | 3.2 | 0.00 | 0.00 | 0.00 | 78 | 1021.4 |
| 20260506215024 | 16 | 190 | 1.6 | 4.8 | 0.00 | 0.00 | 0.00 | 78 | 1021.4 |
| 20260506214528 | 16 | 78 | 1.6 | 3.2 | 0.00 | 0.00 | 0.00 | 78 | 1021.4 |
| 20260506214023 | 16 | 157 | 1.6 | 4.8 | 0.00 | 0.00 | 0.00 | 79 | 1021.4 |
| 20260506213538 | 16 | 346 | 1.6 | 4.8 | 0.00 | 0.00 | 0.00 | 79 | 1021.5 |
| 20260506213034 | 16 | 265 | 1.6 | 3.2 | 0.00 | 0.00 | 0.00 | 79 | 1021.4 |
| 20260506212527 | 16 | 40 | 0.0 | 1.6 | 0.00 | 0.00 | 0.00 | 80 | 1021.5 |
| 20260506212025 | 16 | 354 | 1.6 | 3.2 | 0.00 | 0.00 | 0.00 | 79 | 1021.5 |
| 20260506211519 | 16 | 0.0 | 1.6 | 0.00 | 0.00 | 0.00 | 79 | 1021.5 | |
| 20260506211022 | 16 | 16 | 0.0 | 3.2 | 0.00 | 0.00 | 0.00 | 80 | 1021.6 |
| 20260506210522 | 16 | 344 | 1.6 | 4.8 | 0.00 | 0.00 | 0.00 | 80 | 1021.6 |
| 20260506210046 | 16 | 238 | 1.6 | 3.2 | 0.00 | 0.00 | 0.00 | 81 | 1021.7 |
| 20260506205525 | 16 | 180 | 1.6 | 4.8 | 0.00 | 0.00 | 0.00 | 81 | 1021.7 |
| 20260506205024 | 16 | 175 | 1.6 | 3.2 | 0.00 | 0.00 | 0.00 | 82 | 1021.7 |
| 20260506204522 | 16 | 60 | 1.6 | 4.8 | 0.00 | 0.00 | 0.00 | 81 | 1021.8 |
| 20260506204104 | 15 | 18 | 3.2 | 4.8 | 0.00 | 0.00 | 0.00 | 81 | 1021.7 |
| 20260506203540 | 15 | 16 | 3.2 | 6.4 | 0.00 | 0.00 | 0.00 | 81 | 1021.8 |
| 20260506203031 | 15 | 168 | 1.6 | 4.8 | 0.00 | 0.00 | 0.00 | 82 | 1021.9 |
| 20260506202528 | 15 | 158 | 1.6 | 3.2 | 0.00 | 0.00 | 0.00 | 84 | 1021.8 |
| 20260506202025 | 15 | 333 | 1.6 | 3.2 | 0.00 | 0.00 | 0.00 | 82 | 1021.8 |
| 20260506201523 | 15 | 329 | 0.0 | 3.2 | 0.00 | 0.00 | 0.00 | 82 | 1021.7 |
| 20260506201022 | 15 | 81 | 0.0 | 3.2 | 0.00 | 0.00 | 0.00 | 84 | 1021.7 |
| 20260506200524 | 15 | 206 | 0.0 | 4.8 | 0.00 | 0.00 | 0.00 | 83 | 1021.6 |
| 20260506200022 | 15 | 241 | 0.0 | 3.2 | 0.00 | 0.00 | 0.00 | 85 | 1021.7 |
| 20260506195522 | 15 | 55 | 0.0 | 1.6 | 0.00 | 0.00 | 0.00 | 85 | 1021.7 |
| 20260506195045 | 15 | 355 | 0.0 | 3.2 | 0.00 | 0.00 | 0.00 | 85 | 1021.7 |
| 20260506194527 | 15 | 91 | 0.0 | 3.2 | 0.00 | 0.00 | 0.00 | 85 | 1021.8 |
| 20260506194108 | 15 | 164 | 1.6 | 3.2 | 0.00 | 0.00 | 0.00 | 85 | 1021.9 |
| 20260506193523 | 15 | 167 | 0.0 | 3.2 | 0.00 | 0.00 | 0.00 | 85 | 1022.0 |
| 20260506193024 | 15 | 170 | 1.6 | 4.8 | 0.00 | 0.00 | 0.00 | 85 | 1021.9 |
| 20260506192522 | 15 | 62 | 0.0 | 3.2 | 0.00 | 0.00 | 0.00 | 84 | 1021.9 |
| 20260506192024 | 15 | 118 | 1.6 | 3.2 | 0.00 | 0.00 | 0.00 | 84 | 1021.9 |
| 20260506191522 | 15 | 201 | 0.0 | 3.2 | 0.00 | 0.00 | 0.00 | 86 | 1021.9 |
| 20260506191038 | 15 | 225 | 0.0 | 3.2 | 0.00 | 0.00 | 0.00 | 86 | 1022.0 |
| 20260506190523 | 15 | 52 | 0.0 | 3.2 | 0.00 | 0.00 | 0.00 | 85 | 1021.8 |
| 20260506190019 | 14 | 135 | 0.0 | 3.2 | 0.00 | 0.00 | 0.00 | 84 | 1021.9 |
| 20260506185518 | 15 | 267 | 0.0 | 1.6 | 0.00 | 0.00 | 0.00 | 84 | 1021.7 |
| 20260506185019 | 15 | 268 | 0.0 | 3.2 | 0.00 | 0.00 | 0.00 | 85 | 1021.8 |
| 20260506184522 | 14 | 242 | 0.0 | 1.6 | 0.00 | 0.00 | 0.00 | 85 | 1021.7 |
| 20260506184019 | 14 | 73 | 0.0 | 1.6 | 0.00 | 0.00 | 0.00 | 85 | 1021.8 |
| 20260506183528 | 14 | 142 | 0.0 | 1.6 | 0.00 | 0.00 | 0.00 | 84 | 1021.7 |
| 20260506183022 | 14 | 250 | 1.6 | 3.2 | 0.00 | 0.00 | 0.00 | 84 | 1021.8 |
| 20260506182530 | 14 | 36 | 0.0 | 3.2 | 0.00 | 0.00 | 0.00 | 85 | 1021.7 |
| 20260506182024 | 14 | 25 | 1.6 | 4.8 | 0.00 | 0.00 | 0.00 | 86 | 1021.7 |
| 20260506181520 | 14 | 166 | 1.6 | 4.8 | 0.00 | 0.00 | 0.00 | 85 | 1021.8 |
| 20260506181022 | 14 | 186 | 0.0 | 3.2 | 0.00 | 0.00 | 0.00 | 87 | 1021.7 |
| 20260506180523 | 14 | 181 | 0.0 | 3.2 | 0.00 | 0.00 | 0.00 | 88 | 1021.6 |
| 20260506180025 | 13 | 16 | 1.6 | 3.2 | 0.00 | 0.00 | 0.00 | 86 | 1021.7 |
| 20260506175527 | 13 | 39 | 1.6 | 3.2 | 0.00 | 0.00 | 0.00 | 87 | 1021.7 |
| 20260506175023 | 13 | 198 | 1.6 | 4.8 | 0.00 | 0.00 | 0.00 | 86 | 1021.8 |
| 20260506174518 | 13 | 96 | 1.6 | 3.2 | 0.00 | 0.00 | 0.00 | 87 | 1021.7 |
| 20260506174018 | 13 | 339 | 1.6 | 3.2 | 0.00 | 0.00 | 0.00 | 88 | 1021.8 |
| 20260506173523 | 13 | 111 | 0.0 | 1.6 | 0.00 | 0.00 | 0.00 | 88 | 1021.5 |
| 20260506173018 | 13 | 142 | 0.0 | 1.6 | 0.00 | 0.00 | 0.00 | 87 | 1021.5 |
| 20260506172518 | 13 | 164 | 0.0 | 1.6 | 0.00 | 0.00 | 0.00 | 87 | 1021.5 |
| 20260506172024 | 13 | 217 | 1.6 | 3.2 | 0.00 | 0.00 | 0.00 | 87 | 1021.4 |
| 20260506171523 | 13 | 28 | 0.0 | 3.2 | 0.00 | 0.00 | 0.00 | 87 | 1021.5 |
| 20260506171019 | 13 | 356 | 1.6 | 3.2 | 0.00 | 0.00 | 0.00 | 87 | 1021.4 |
| 20260506170522 | 13 | 154 | 0.0 | 3.2 | 0.00 | 0.00 | 0.00 | 88 | 1021.4 |
| 20260506170023 | 13 | 142 | 0.0 | 1.6 | 0.00 | 0.00 | 0.00 | 88 | 1021.4 |
| 20260506165525 | 13 | 252 | 1.6 | 3.2 | 0.00 | 0.00 | 0.00 | 88 | 1021.4 |
| 20260506165030 | 12 | 35 | 1.6 | 3.2 | 0.00 | 0.00 | 0.00 | 89 | 1021.3 |
| 20260506164519 | 12 | 174 | 1.6 | 3.2 | 0.00 | 0.00 | 0.00 | 89 | 1021.4 |
| 20260506164025 | 12 | 232 | 0.0 | 3.2 | 0.00 | 0.00 | 0.00 | 89 | 1021.6 |
| 20260506163525 | 12 | 119 | 0.0 | 1.6 | 0.00 | 0.00 | 0.00 | 89 | 1021.4 |
| 20260506163018 | 12 | 283 | 0.0 | 3.2 | 0.00 | 0.00 | 0.00 | 89 | 1021.5 |
| 20260506162522 | 12 | 31 | 1.6 | 4.8 | 0.00 | 0.00 | 0.00 | 89 | 1021.4 |
| 20260506162026 | 12 | 341 | 0.0 | 3.2 | 0.00 | 0.00 | 0.00 | 89 | 1021.4 |
| 20260506161522 | 12 | 0.0 | 1.6 | 0.00 | 0.00 | 0.00 | 89 | 1021.4 | |
| 20260506161022 | 12 | 125 | 0.0 | 1.6 | 0.00 | 0.00 | 0.00 | 90 | 1021.4 |
| 20260506160522 | 12 | 205 | 0.0 | 1.6 | 0.00 | 0.00 | 0.00 | 89 | 1021.3 |
| 20260506160018 | 12 | 310 | 0.0 | 1.6 | 0.00 | 0.00 | 0.00 | 89 | 1021.1 |
| 20260506155539 | 12 | 213 | 0.0 | 1.6 | 0.00 | 0.00 | 0.00 | 89 | 1021.1 |
| 20260506155024 | 12 | 208 | 0.0 | 1.6 | 0.00 | 0.00 | 0.00 | 90 | 1020.9 |
| 20260506154539 | 12 | 301 | 0.0 | 3.2 | 0.00 | 0.00 | 0.00 | 90 | 1020.7 |
| 20260506154019 | 12 | 262 | 1.6 | 3.2 | 0.00 | 0.00 | 0.00 | 90 | 1020.7 |
| 20260506153528 | 12 | 153 | 0.0 | 1.6 | 0.00 | 0.00 | 0.00 | 89 | 1020.5 |
| 20260506153022 | 12 | 130 | 0.0 | 1.6 | 0.00 | 0.00 | 0.00 | 89 | 1020.8 |
| 20260506152519 | 12 | 132 | 0.0 | 3.2 | 0.00 | 0.00 | 0.00 | 90 | 1020.8 |
| 20260506152019 | 12 | 311 | 0.0 | 1.6 | 0.00 | 0.00 | 0.00 | 90 | 1021.0 |
| 20260506151543 | 12 | 0.0 | 1.6 | 0.00 | 0.00 | 0.00 | 90 | 1020.9 | |
| 20260506151019 | 12 | 0.0 | 0.0 | 0.00 | 0.00 | 0.00 | 91 | 1021.1 | |
| 20260506150519 | 12 | 178 | 0.0 | 1.6 | 0.00 | 0.00 | 0.00 | 91 | 1021.2 |
| 20260506150022 | 12 | 0.0 | 1.6 | 0.00 | 0.00 | 0.00 | 91 | 1021.3 | |
| 20260506145542 | 12 | 326 | 0.0 | 1.6 | 0.00 | 0.00 | 0.00 | 92 | 1021.3 |
| 20260506145024 | 12 | 0.0 | 1.6 | 0.00 | 0.00 | 0.00 | 92 | 1021.2 | |
| 20260506144547 | 12 | 225 | 0.0 | 1.6 | 0.00 | 0.00 | 0.00 | 92 | 1021.1 |
| 20260506144042 | 11 | 332 | 0.0 | 1.6 | 0.00 | 0.00 | 0.00 | 92 | 1021.0 |
| 20260506143522 | 11 | 0.0 | 1.6 | 0.00 | 0.00 | 0.00 | 92 | 1020.9 | |
| 20260506143027 | 11 | 0.0 | 0.0 | 0.00 | 0.00 | 0.00 | 92 | 1021.0 | |
| 20260506142522 | 11 | 0.0 | 0.0 | 0.00 | 0.00 | 0.00 | 92 | 1021.0 | |
| 20260506142024 | 11 | 0.0 | 1.6 | 0.00 | 0.00 | 0.00 | 93 | 1020.9 | |
| 20260506141524 | 11 | 0.0 | 1.6 | 0.00 | 0.00 | 0.00 | 93 | 1020.7 | |
| 20260506141018 | 11 | 0.0 | 0.0 | 0.00 | 0.00 | 0.00 | 93 | 1020.6 | |
| 20260506140522 | 11 | 0.0 | 1.6 | 0.00 | 0.00 | 0.00 | 93 | 1020.5 | |
| 20260506140019 | 11 | 138 | 0.0 | 1.6 | 0.00 | 0.00 | 0.00 | 93 | 1020.4 |
| 20260506135528 | 11 | 0.0 | 0.0 | 0.00 | 0.00 | 0.00 | 93 | 1020.4 | |
| 20260506135022 | 11 | 0.0 | 1.6 | 0.00 | 0.00 | 0.00 | 93 | 1020.5 | |
| 20260506134522 | 11 | 0.0 | 0.0 | 0.00 | 0.00 | 0.00 | 93 | 1020.4 | |
| 20260506134024 | 11 | 0.0 | 1.6 | 0.00 | 0.00 | 0.00 | 93 | 1020.3 | |
| 20260506133519 | 11 | 0.0 | 1.6 | 0.00 | 0.00 | 0.00 | 93 | 1020.2 | |
| 20260506133022 | 11 | 0.0 | 1.6 | 0.00 | 0.00 | 0.00 | 93 | 1020.3 | |
| 20260506132519 | 11 | 0.0 | 0.0 | 0.00 | 0.00 | 0.00 | 93 | 1020.3 | |
| 20260506132028 | 11 | 0.0 | 0.0 | 0.00 | 0.00 | 0.00 | 94 | 1020.3 | |
| 20260506131524 | 11 | 0.0 | 1.6 | 0.00 | 0.03 | 0.00 | 94 | 1020.3 | |
| 20260506131022 | 11 | 0.0 | 0.0 | 0.00 | 0.03 | 0.00 | 93 | 1020.1 | |
| 20260506130524 | 11 | 0.0 | 0.0 | 0.00 | 0.03 | 0.00 | 93 | 1019.9 | |
| 20260506130039 | 11 | 0.0 | 0.0 | 0.00 | 0.03 | 0.00 | 93 | 1019.8 | |
| 20260506125522 | 11 | 0.0 | 1.6 | 0.00 | 0.03 | 0.00 | 93 | 1019.9 | |
| 20260506125019 | 11 | 0.0 | 1.6 | 0.00 | 0.03 | 0.00 | 93 | 1019.8 | |
| 20260506124519 | 11 | 0.0 | 0.0 | 0.00 | 0.03 | 0.00 | 93 | 1019.7 | |
| 20260506124027 | 12 | 0.0 | 1.6 | 0.00 | 0.03 | 0.00 | 93 | 1019.7 | |
| 20260506123524 | 12 | 0.0 | 0.0 | 0.00 | 0.03 | 0.00 | 93 | 1019.6 | |
| 20260506123019 | 12 | 0.0 | 0.0 | 0.00 | 0.03 | 0.00 | 93 | 1019.6 | |
| 20260506122522 | 12 | 0.0 | 0.0 | 0.00 | 0.03 | 0.00 | 93 | 1019.8 | |
| 20260506122042 | 12 | 0.0 | 0.0 | 0.00 | 0.03 | 0.00 | 93 | 1019.7 | |
| 20260506121524 | 12 | 0.0 | 1.6 | 0.00 | 0.03 | 0.00 | 93 | 1019.6 | |
| 20260506121022 | 12 | 0.0 | 0.0 | 0.00 | 0.03 | 0.00 | 92 | 1019.7 | |
| 20260506120522 | 12 | 0.0 | 1.6 | 0.00 | 0.03 | 0.00 | 93 | 1019.7 | |
| 20260506120019 | 12 | 0.0 | 1.6 | 0.00 | 0.03 | 0.00 | 93 | 1019.7 | |
| 20260506115524 | 12 | 0.0 | 0.0 | 0.00 | 0.03 | 0.00 | 93 | 1019.7 | |
| 20260506115026 | 12 | 0.0 | 0.0 | 0.00 | 0.03 | 0.00 | 93 | 1019.7 | |
| 20260506114542 | 12 | 0.0 | 0.0 | 0.00 | 0.03 | 0.00 | 93 | 1019.7 | |
| 20260506114023 | 12 | 0.0 | 1.6 | 0.00 | 0.03 | 0.00 | 93 | 1019.5 | |
| 20260506113522 | 12 | 0.0 | 0.0 | 0.00 | 0.03 | 0.00 | 93 | 1019.4 | |
| 20260506113024 | 12 | 0.0 | 0.0 | 0.00 | 0.03 | 0.00 | 93 | 1019.3 | |
| 20260506112522 | 12 | 0.0 | 0.0 | 0.00 | 0.03 | 0.00 | 93 | 1019.4 | |
| 20260506112047 | 12 | 0.0 | 0.0 | 0.00 | 0.03 | 0.00 | 93 | 1019.5 | |
| 20260506111526 | 12 | 0.0 | 0.0 | 0.00 | 0.03 | 0.00 | 93 | 1019.4 | |
| 20260506111043 | 12 | 0.0 | 0.0 | 0.00 | 0.03 | 0.00 | 93 | 1019.3 | |
| 20260506110523 | 12 | 0.0 | 0.0 | 0.00 | 0.03 | 0.00 | 93 | 1019.3 | |
| 20260506110022 | 12 | 0.0 | 0.0 | 0.00 | 0.03 | 0.00 | 93 | 1019.2 | |
| 20260506105519 | 12 | 0.0 | 0.0 | 0.00 | 0.03 | 0.00 | 93 | 1019.2 | |
| 20260506105022 | 12 | 0.0 | 0.0 | 0.00 | 0.03 | 0.00 | 93 | 1019.1 | |
| 20260506104524 | 12 | 0.0 | 0.0 | 0.00 | 0.03 | 0.00 | 93 | 1019.0 | |
| 20260506104026 | 12 | 0.0 | 0.0 | 0.00 | 0.03 | 0.00 | 93 | 1019.0 | |
| 20260506103522 | 12 | 0.0 | 0.0 | 0.00 | 0.03 | 0.00 | 93 | 1019.0 | |
| 20260506103026 | 12 | 0.0 | 0.0 | 0.00 | 0.03 | 0.00 | 93 | 1018.9 | |
| 20260506102542 | 12 | 0.0 | 0.0 | 0.00 | 0.03 | 0.00 | 93 | 1018.9 | |
| 20260506102024 | 12 | 0.0 | 0.0 | 0.00 | 0.03 | 0.00 | 92 | 1018.8 | |
| 20260506101603 | 12 | 0.0 | 0.0 | 0.00 | 0.03 | 0.00 | 92 | 1018.7 | |
| 20260506101046 | 12 | 0.0 | 0.0 | 0.00 | 0.03 | 0.00 | 92 | 1018.6 | |
| 20260506100522 | 12 | 0.0 | 0.0 | 0.00 | 0.03 | 0.00 | 92 | 1018.6 | |
| 20260506100024 | 12 | 0.0 | 0.0 | 0.00 | 0.03 | 0.00 | 92 | 1018.6 | |
| 20260506095526 | 12 | 0.0 | 0.0 | 0.00 | 0.03 | 0.00 | 92 | 1018.7 | |
| 20260506095022 | 12 | 0.0 | 0.0 | 0.00 | 0.03 | 0.00 | 92 | 1018.5 | |
| 20260506094522 | 12 | 0.0 | 0.0 | 0.00 | 0.03 | 0.00 | 92 | 1018.6 | |
| 20260506094024 | 12 | 0.0 | 0.0 | 0.00 | 0.03 | 0.00 | 92 | 1018.5 | |
| 20260506093544 | 12 | 0.0 | 0.0 | 0.00 | 0.03 | 0.00 | 92 | 1018.5 | |
| 20260506093021 | 12 | 0.0 | 0.0 | 0.00 | 0.03 | 0.00 | 93 | 1018.4 | |
| 20260506092521 | 12 | 0.0 | 0.0 | 0.00 | 0.03 | 0.00 | 93 | 1018.5 | |
| 20260506092022 | 12 | 0.0 | 0.0 | 0.00 | 0.03 | 0.00 | 92 | 1018.5 | |
| 20260506091544 | 12 | 0.0 | 0.0 | 0.00 | 0.03 | 0.00 | 93 | 1018.4 | |
| 20260506091022 | 12 | 0.0 | 0.0 | 0.00 | 0.03 | 0.00 | 93 | 1018.4 | |
| 20260506090522 | 12 | 0.0 | 0.0 | 0.00 | 0.03 | 0.00 | 93 | 1018.4 | |
| 20260506090027 | 12 | 0.0 | 0.0 | 0.00 | 0.03 | 0.00 | 92 | 1018.5 | |
| 20260506085521 | 12 | 0.0 | 0.0 | 0.00 | 0.03 | 0.00 | 92 | 1018.4 | |
| 20260506085042 | 12 | 0.0 | 0.0 | 0.00 | 0.03 | 0.00 | 93 | 1018.5 | |
| 20260506084531 | 12 | 0.0 | 1.6 | 0.00 | 0.03 | 0.00 | 93 | 1018.5 | |
| 20260506084041 | 12 | 0.0 | 1.6 | 0.00 | 0.03 | 0.00 | 93 | 1018.4 | |
| 20260506083522 | 12 | 221 | 0.0 | 3.2 | 0.00 | 0.03 | 0.00 | 93 | 1018.3 |
| 20260506083023 | 12 | 0.0 | 0.0 | 0.00 | 0.03 | 0.00 | 93 | 1018.4 | |
| 20260506082525 | 12 | 231 | 0.0 | 1.6 | 0.00 | 0.03 | 0.00 | 93 | 1018.4 |
| 20260506082021 | 12 | 38 | 0.0 | 1.6 | 0.00 | 0.03 | 0.00 | 93 | 1018.3 |
| 20260506081522 | 12 | 196 | 0.0 | 1.6 | 0.00 | 0.03 | 0.00 | 93 | 1018.3 |
| 20260506081025 | 12 | 0.0 | 1.6 | 0.00 | 0.03 | 0.00 | 93 | 1018.2 | |
| 20260506080524 | 12 | 0.0 | 0.0 | 0.00 | 0.03 | 0.00 | 93 | 1018.3 |